Location: Antist
(43.1184°N, 0.1270°E)
Time: 19:49:16
(UTC+00:00)

Cosmos 1953 Rocket - Pass Details

Date: 19 January 2020
Orbit: 603 x 636 km, 82.5° (Epoch: 21 February)

Event Time Altitude Azimuth Distance (km) Brightness Sun altitude
Rises 18:17:03 0° 165° (SSE) 2,912 7.0 -15.0°
Reaches altitude 10° 18:19:24 10° 156° (SSE) 2,012 6.1 -15.4°
Maximum altitude 18:23:28 35° 91° (E) 1,025 4.1 -16.1°
Enters shadow 18:25:13 26° 48° (NE) 1,273 4.7 -16.4°
